CZ-6A DEB

Satellite information

Favourite Embed

Satellite Type and Status

DEBRISIN ORBIT

Key statistics

Satellite CZ-6A DEB at a glance.

Uptime

396

Days in orbit

Revolutions

≈ 14.2

Per day

Orbit

LEO

Low Earth Orbit

Inclination

88.8

Latest

Satellite identification and parameters

Extended collection of information and parameters for CZ-6A DEB.

Object identification

Identified? True

Debris? True

Object name: CZ-6A DEB

International designator: 2024-140WG

Object number (NORAD): 61367

Object ID (CCSDS): 61367

Country: PEOPLES REPUBLIC OF CHINA (PRC)

Current information (Y/N): Y

RCS size: SMALL

Orbital parameters

Period: 101.129 minutes

Inclination: 88.7707 deg

SMA: 7190.233 km

Apoapsis: 832.822 km

Periapsis: 791.374 km

RAAN: 296.055 deg

Eccentricy: 0.00288226

Argument of periapsis: 1.9716 deg

Mean anomaly: 358.1584 deg

Mean motion: 14.23928901 rev/day

Mean motion (dot): 0.00000947 rev/day2

B* drag term: 0.00040501537 1/REarth

Two-line elements (TLE)

Creation date: Sept. 4, 2025, 10:13 a.m.

Reference frame: TEME

Reference center: EARTH

Epoch: Sept. 4, 2025, 2:55 a.m. UTC

TLE line 0: 0 CZ-6A DEB

TLE line 1: 1 61367U 24140WG 25247.12156609 .00000947 00000-0 40502-3 0 9998

TLE line 2: 2 61367 88.7707 296.0550 0028823 1.9716 358.1584 14.23928901 51926

Live tracking on map

Real-time ground track for satellite CZ-6A DEB.

In-orbit conjunctions

A list of the most updated potential collisions computed for object CZ-6A DEB.

Target Orbit TCA Probability of collision Miss distance Type
SL-16 DEB LEO 2025-08-13 01:22:02 0.0005482033 133.0 (m) DEBRIS
FENGYUN 1C DEB SSO 2025-02-22 15:04:35 0.000320042 242.0 (m) DEBRIS
NOAA 16 DEB SSO 2024-11-23 13:59:04 0.0001143738 241.0 (m) DEBRIS
FENGYUN 1C DEB SSO 2024-11-19 21:22:21 0.0002847625 185.0 (m) DEBRIS
FENGYUN 1C DEB SSO 2024-11-14 07:20:51 0.0001110821 905.0 (m) DEBRIS

Associated space launch

18 Low Earth Orbit communication satellites with Ku, Q and V band payloads for the G60 constellation operated by Shanghai Spacecom Satellite Technology (SSST) with funding backed by the Shanghai local government. Initial constellation will consist of 1296 satellites by 2027 with long term plans to expand it to 12000 satellites.

CZ-6A DEB was lifted into orbit during the mission ‘Long March 6A | G60 Polar Group 01’, on board a Long March 6A space rocket.

The launch took place on Aug. 6, 2024, 6:42 a.m. from Launch Complex 9A.

For more information about the launch, click the button.

Launch to space Long March 6A | G60 Polar Group 01
Long March 6A | G60 Polar Group 01

Agency: N/A

Status: Launch Successful

Launch date: Aug. 6, 2024, 6:42 a.m. UTC

Rocket: Long March 6A

Launch pad: Launch Complex 9A

Location: Taiyuan Satellite Launch Center, People's Republic of China

...

Latest news about this satellite

News about space launch
Brightness of first Chinese broadband constellation satellites alarms astronomers

The first satellites of a Chinese broadband constellation are significantly brighter than those of Western systems, posing a new challenge for astronomers.

News about space launch
Chinese rocket stage breaks up into cloud of more than 700 pieces of space debris

HELSINKI — A Chinese Long March 6A rocket’s upper stage has fragmented into a cloud of over 700 pieces of space debris, adding to concerns about long-term orbital safety. China […]

News about space launch
China's Thousand Sails Megaconstellation Kicks Off with Dangerous Debris Field

China's Thousand Sails Megaconstellation Kicks Off with Dangerous Debris Field


Newsletter sign-up

Weekly statistics, charts and insights to help you stay on top of the space industry.